Location: *
(55.5817°S, 142.4781°W)
Time: 09:37:49
(UTC+00:00)

Cosmos 1954 Rocket - Pass Details

Date: 29 April 2025
Orbit: 748 x 777 km, 74.0° (Epoch: 18 May)

Event Time Altitude Azimuth Distance (km) Brightness Sun altitude
Exits shadow 15:06:01 - 208° (SSW) 2,973 6.7 -15.0°
Reaches altitude 10° 15:07:42 10° 206° (SSW) 2,321 6.2 -14.8°
Maximum altitude 15:12:59 76° 119° (ESE) 799 4.2 -14.1°
Drops below altitude 10° 15:18:15 10° 33° (NNE) 2,314 7.1 -13.3°
Sets 15:20:37 0° 31° (NNE) 3,238 7.8 -13.0°
